Regional Weather Roundup
Issued by NWS

Home | Current Version | Previous Version | Text Only | Print | Product List | Glossary On
Versions: 1 2 3 4 5 6 7 8 9 10 11 12 13 14 15 16 17 18 19 20 21 22 23 24 25 26 27 28
000
ASUS45 KREV 260110
RWRNV
NEVADA REGIONAL WEATHER ROUNDUP
NATIONAL WEATHER SERVICE RENO NV
600 PM PDT MON SEP 25 2017

NOTE: "FAIR" INDICATES FEW OR NO CLOUDS BELOW 12,000 FEET WITH NO
SIGNIFICANT WEATHER AND/OR OBSTRUCTIONS TO VISIBILITY.

NVZ001-003-004-260200-
WESTERN NEVADA

CITY           SKY/WX    TMP DP  RH WIND       PRES   REMARKS
RENO           PTCLDY    67  25  20 N10       30.06S
CARSON CITY    FAIR      64  21  19 E10       30.07S
MINDEN         FAIR      64  23  20 N13       30.06S
SLIDE MTN        N/A     39  27  60 N9          N/A
FALLON         PTCLDY    66  21  18 VRB6      30.05S
LOVELOCK       CLEAR     67  27  22 NE10      30.04S
HAWTHORNE      CLEAR     64  25  22 NW14      30.04S
$$

NVZ002-CAZ072-073-260200-
NORTHERN AND CENTRAL SIERRA

CITY           SKY/WX    TMP DP  RH WIND       PRES   REMARKS
S. LAKE TAHOE  CLEAR     56  24  29 VRB3      30.10S
SQUAW VLY 8000   N/A     46  25  42 NE5         N/A
SUSANVILLE     CLEAR     68  30  24 SE6       30.06S
BLUE CANYON    CLEAR     65  24  21 NE8       30.07R
MAMMOTH LAKES  FAIR      59  20  21 N8        30.11R
BRIDGEPORT     FAIR      57  17  21 MISG      30.09R
$$

NVZ030-031-036-260200-
NORTHERN NEVADA

CITY           SKY/WX    TMP DP  RH WIND       PRES   REMARKS
ELKO           PTCLDY    59  26  28 NW7       30.08S
WINNEMUCCA     CLEAR     65  30  27 NW9       30.07S
WENDOVER       PTCLDY    56  30  37 SE5       30.11S
$$

NVZ035-037-260200-
CENTRAL NEVADA

CITY           SKY/WX    TMP DP  RH WIND       PRES   REMARKS
ELY            CLEAR     53  28  38 N10       30.09F
EUREKA           N/A     54  29  38 N9        30.11R
$$

NVZ013-014-260200-
SOUTH CENTRAL NEVADA

CITY           SKY/WX    TMP DP  RH WIND       PRES   REMARKS
TONOPAH        CLEAR     64  39  39 N15       30.03F
$$

NVZ017-020-022-260200-
SOUTHERN NEVADA

CITY           SKY/WX    TMP DP  RH WIND       PRES   REMARKS
LAS VEGAS      PTCLDY    77  25  14 NE10      29.86S
N. LAS VEGAS   CLEAR     77  20  12 NW15      29.85F
NELLIS AFB     CLEAR     77  26  15 NE16      29.84S
HENDERSON      CLEAR     74  25  16 NE7       29.89F
MERCURY        PTCLDY    74  23  15 N10       29.91F
$$




USA.gov is the U.S. government's official web portal to all federal, state and local government web resources and services.